Terminal Aerodrome Forecast
Issued by NWS Mobile, AL

Home | Current Version | Previous Version | Text Only | Print | Product List | Glossary On
Versions: 1 2 3 4 5 6 7 8 9 10 11 12 13 14 15 16 17 18 19 20 21 22 23 24 25
000
FTUS44 KMOB 311100
TAFPNS
TAF
KPNS 311120Z 3112/0112 02003KT P6SM SKC
     FM311600 09004KT P6SM SCT120 BKN250
     FM010300 VRB02KT P6SM BKN250=

USA.gov is the U.S. government's official web portal to all federal, state and local government web resources and services.